Regional Weather Roundup
Issued by NWS

Home | Current Version | Previous Version | Text Only | Print | Product List | Glossary Off
Versions: 1 2 3 4 5 6 7 8 9 10 11 12 13 14 15 16 17 18 19 20 21 22 23 24 25 26 27

000
ASUS45 KCYS 220310
RWRWY

WYOMING REGIONAL WEATHER ROUNDUP
NATIONAL WEATHER SERVICE CHEYENNE WY
900 PM MDT SAT APR 21 2018

NOTE:  "FAIR" INDICATES FEW OR NO CLOUDS BELOW 12,000 FEET
WITH NO SIGNIFICANT WEATHER AND/OR OBSTRUCTIONS TO VISIBILITY.

WYZ001-220400-
YELLOWSTONE NATIONAL PARK

CITY           SKY/WX    TMP DP  RH WIND       PRES   REMARKS
LK YELLOWSTONE   N/A     33  26  75 CALM      30.22R
W YELLOWSTONE  NOT AVBL

$$
WYZ002>013-054>058-071-098>099-220400-
NORTHERN WYOMING

CITY           SKY/WX    TMP DP  RH WIND       PRES   REMARKS
JACKSON        FAIR      46  24  42 W7        30.17R
CODY           FAIR      61  26  26 W10G21    30.05R
GREYBULL       NOT AVBL
WORLAND        FAIR      51  31  46 S7        29.99R
SHERIDAN       FAIR      55  38  52 S10       30.00R
BUFFALO        FAIR      53  36  52 S10       30.06R
GILLETTE       FAIR      47  36  65 S13       30.06R
HULETT         FAIR      50  36  57 SW12G17   30.08R
NEWCASTLE      FAIR      41  34  75 SE10      30.15R

$$
WYZ014>020-022>026-101>103-220400-
CENTRAL WYOMING

CITY           SKY/WX    TMP DP  RH WIND       PRES   REMARKS
BIG PINEY      FAIR      46  23  40 N12       30.19R
PINEDALE       FAIR      43  23  45 NW8       30.19R
DUBOIS         FAIR      46  23  39 W10       30.16R
LANDER         FAIR      54  27  35 W12       30.04R
RIVERTON       FAIR      55  23  28 CALM      30.06R
CASPER         FAIR      49  38  65 E14       30.06R
DOUGLAS        FAIR      40  37  89 SE16      30.11R WCI  31

$$
WYZ021-027>030-104>119-220400-
SOUTHERN WYOMING

CITY           SKY/WX    TMP DP  RH WIND       PRES   REMARKS
EVANSTON       FAIR      48  26  42 W9        30.23R
KEMMERER       FAIR      46  25  42 W10G17    30.20S
FORT BRIDGER   FAIR      49  24  37 W9        30.24R
ROCK SPRINGS   FAIR      53  20  27 W8        30.14R
DIXON          FAIR      49  33  56 S9        30.18R
RAWLINS          N/A    N/A N/A N/A MISG      30.12R
SARATOGA       FAIR      45  32  61 SW8       30.15R
LARAMIE        FAIR      35  33  92 S12       30.14R WCI  27
CHEYENNE       FAIR      36  34  92 SW14      30.14F WCI  27
TORRINGTON     FAIR      39  37  92 E13       30.15R WCI  31
PINE BLUFFS    FAIR      37  34  87 MISG      30.18R

$$




USA.gov is the U.S. government's official web portal to all federal, state and local government web resources and services.